TimePST,TemperatureF,Dew PointF,Humidity,Sea Level PressureIn,VisibilityMPH,Wind Direction,Wind SpeedMPH,Gust SpeedMPH,PrecipitationIn,Events,Conditions,WindDirDegrees,DateUTC
12:01 AM,44.6,44.6,100,30.28,2.5,Calm,Calm,-,N/A,,Overcast,0,2012-02-09 08:01:00
12:03 AM,44.6,42.8,93,30.28,2.0,Calm,Calm,-,N/A,,Overcast,0,2012-02-09 08:03:00
12:10 AM,44.6,42.8,93,30.28,2.5,Calm,Calm,-,N/A,,Overcast,0,2012-02-09 08:10:00
12:12 AM,44.6,44.6,100,30.28,3.0,Calm,Calm,-,N/A,,Overcast,0,2012-02-09 08:12:00
12:32 AM,42.8,42.8,100,30.28,2.5,Calm,Calm,-,N/A,,Overcast,0,2012-02-09 08:32:00
12:35 AM,42.8,42.8,100,30.28,2.0,Calm,Calm,-,N/A,,Overcast,0,2012-02-09 08:35:00
12:38 AM,42.8,42.8,100,30.28,2.0,Calm,Calm,-,N/A,,Overcast,0,2012-02-09 08:38:00
12:40 AM,42.8,42.8,100,30.28,2.0,Calm,Calm,-,N/A,,Overcast,0,2012-02-09 08:40:00
12:42 AM,42.8,42.8,100,30.28,2.0,Calm,Calm,-,N/A,,Overcast,0,2012-02-09 08:42:00
12:43 AM,42.8,42.8,100,30.28,2.5,Calm,Calm,-,N/A,,Overcast,0,2012-02-09 08:43:00
12:46 AM,42.8,42.8,100,30.28,3.0,Calm,Calm,-,N/A,,Overcast,0,2012-02-09 08:46:00
12:53 AM,44.6,44.6,100,30.29,5.0,Calm,Calm,-,N/A,,Overcast,0,2012-02-09 08:53:00
12:55 AM,43.9,43.9,100,30.29,6.0,Calm,Calm,-,N/A,,Overcast,0,2012-02-09 08:55:00
12:56 AM,44.6,44.6,100,30.29,6.0,Calm,Calm,-,N/A,,Overcast,0,2012-02-09 08:56:00
1:21 AM,42.8,42.8,100,30.29,3.0,Calm,Calm,-,N/A,Rain,Light Rain,0,2012-02-09 09:21:00
1:55 AM,44.2,44.2,100,30.29,7.0,Calm,Calm,-,0.00,Rain,Light Rain,0,2012-02-09 09:55:00
2:20 AM,44.6,44.6,100,30.29,4.0,Calm,Calm,-,N/A,,Mostly Cloudy,0,2012-02-09 10:20:00
2:52 AM,44.6,44.6,100,30.28,7.0,Calm,Calm,-,N/A,Rain,Light Rain,0,2012-02-09 10:52:00
2:55 AM,44.2,44.2,100,30.28,6.0,Calm,Calm,-,0.01,Rain,Light Rain,0,2012-02-09 10:55:00
3:05 AM,44.6,44.6,100,30.27,4.0,Calm,Calm,-,N/A,,Overcast,0,2012-02-09 11:05:00
3:55 AM,44.1,44.1,100,30.25,7.0,Calm,Calm,-,0.00,,Overcast,0,2012-02-09 11:55:00
4:22 AM,44.6,44.6,100,30.25,10.0,Calm,Calm,-,N/A,Rain,Light Rain,0,2012-02-09 12:22:00
4:35 AM,44.6,44.6,100,30.25,10.0,Calm,Calm,-,N/A,,Overcast,0,2012-02-09 12:35:00
4:44 AM,44.6,44.6,100,30.25,10.0,Calm,Calm,-,N/A,,Light Drizzle,0,2012-02-09 12:44:00
4:55 AM,44.4,44.4,100,30.25,10.0,Calm,Calm,-,0.00,Rain,Light Rain,0,2012-02-09 12:55:00
5:55 AM,44.4,44.4,100,30.24,9.0,Calm,Calm,-,0.01,Rain,Light Rain,0,2012-02-09 13:55:00
6:55 AM,43.5,43.5,100,30.24,3.0,Calm,Calm,-,0.02,Rain,Light Rain,0,2012-02-09 14:55:00
7:02 AM,44.6,44.6,100,30.24,2.5,Calm,Calm,-,N/A,Rain,Light Rain,0,2012-02-09 15:02:00
7:03 AM,44.6,44.6,100,30.24,3.0,Calm,Calm,-,N/A,Rain,Light Rain,0,2012-02-09 15:03:00
7:28 AM,44.6,44.6,100,30.24,2.5,Calm,Calm,-,N/A,Rain,Light Rain,0,2012-02-09 15:28:00
7:31 AM,44.6,44.6,100,30.24,2.0,Calm,Calm,-,N/A,Rain,Light Rain,0,2012-02-09 15:31:00
7:35 AM,44.6,44.6,100,30.24,2.5,Calm,Calm,-,N/A,Rain,Light Rain,0,2012-02-09 15:35:00
7:38 AM,44.6,44.6,100,30.24,3.0,Calm,Calm,-,N/A,Rain,Light Rain,0,2012-02-09 15:38:00
7:45 AM,44.6,44.6,100,30.24,2.5,Calm,Calm,-,N/A,Rain,Light Rain,0,2012-02-09 15:45:00
7:51 AM,44.6,44.6,100,30.24,2.0,Calm,Calm,-,N/A,Rain,Light Rain,0,2012-02-09 15:51:00
7:52 AM,44.6,44.6,100,30.24,1.8,Calm,Calm,-,N/A,Rain,Light Rain,0,2012-02-09 15:52:00
7:53 AM,44.6,44.6,100,30.24,1.5,Calm,Calm,-,N/A,Rain,Light Rain,0,2012-02-09 15:53:00
7:55 AM,44.1,44.1,100,30.24,1.2,Calm,Calm,-,0.01,Rain,Light Rain,0,2012-02-09 15:55:00
7:57 AM,44.6,44.6,100,30.24,1.0,Calm,Calm,-,N/A,Rain,Light Rain,0,2012-02-09 15:57:00
8:04 AM,44.6,44.6,100,30.24,1.2,Calm,Calm,-,N/A,Rain,Light Rain,0,2012-02-09 16:04:00
8:11 AM,44.6,44.6,100,30.24,1.8,Calm,Calm,-,N/A,Rain,Light Rain,0,2012-02-09 16:11:00
8:13 AM,44.6,44.6,100,30.24,2.0,Calm,Calm,-,N/A,Rain,Light Rain,0,2012-02-09 16:13:00
8:16 AM,44.6,44.6,100,30.24,2.5,Calm,Calm,-,N/A,Rain,Light Rain,0,2012-02-09 16:16:00
8:18 AM,44.6,44.6,100,30.24,3.0,Calm,Calm,-,N/A,Rain,Light Rain,0,2012-02-09 16:18:00
8:55 AM,45.1,45.1,100,30.25,5.0,Calm,Calm,-,0.03,Rain,Light Rain,0,2012-02-09 16:55:00
9:55 AM,46.8,46.8,100,30.25,6.0,SE,3.5,-,0.04,Rain,Light Rain,130,2012-02-09 17:55:00
10:55 AM,47.8,47.8,100,30.25,6.0,NNE,3.5,-,0.03,Rain,Light Rain,30,2012-02-09 18:55:00
11:55 AM,49.3,49.3,100,30.24,6.0,Calm,Calm,-,0.03,Rain,Light Rain,0,2012-02-09 19:55:00
12:38 PM,50.0,50.0,100,30.22,10.0,North,3.5,-,N/A,,Mostly Cloudy,360,2012-02-09 20:38:00
12:53 PM,50.0,50.0,100,30.20,10.0,NE,5.8,-,N/A,Rain,Light Rain,40,2012-02-09 20:53:00
12:55 PM,50.7,50.5,99,30.21,10.0,ENE,4.6,-,0.01,Rain,Light Rain,60,2012-02-09 20:55:00
1:09 PM,51.8,51.8,100,30.20,10.0,ENE,3.5,-,N/A,,Mostly Cloudy,60,2012-02-09 21:09:00
1:55 PM,51.6,51.3,99,30.18,10.0,Calm,Calm,-,0.00,,Mostly Cloudy,0,2012-02-09 21:55:00
2:18 PM,51.8,51.8,100,30.18,10.0,NW,3.5,-,N/A,Rain,Light Rain,310,2012-02-09 22:18:00
2:55 PM,51.4,51.1,99,30.17,10.0,NNW,5.8,-,0.01,Rain,Light Rain,330,2012-02-09 22:55:00
3:16 PM,50.0,50.0,100,30.18,5.0,West,8.1,-,N/A,Rain,Light Rain,280,2012-02-09 23:16:00
3:28 PM,48.2,48.2,100,30.18,5.0,West,8.1,-,N/A,Rain,Light Rain,270,2012-02-09 23:28:00
3:33 PM,48.2,48.2,100,30.17,5.0,West,5.8,-,N/A,,Mostly Cloudy,280,2012-02-09 23:33:00
3:55 PM,48.4,48.2,99,30.18,7.0,WSW,5.8,-,0.00,,Overcast,250,2012-02-09 23:55:00
4:08 PM,48.2,48.2,100,30.17,7.0,Calm,Calm,-,N/A,,Mostly Cloudy,0,2012-02-10 00:08:00
4:55 PM,48.2,47.8,99,30.17,5.0,Calm,Calm,-,N/A,,Mostly Cloudy,0,2012-02-10 00:55:00
4:59 PM,48.2,48.2,100,30.17,5.0,SW,3.5,-,N/A,,Mostly Cloudy,230,2012-02-10 00:59:00
5:18 PM,48.2,48.2,100,30.18,2.5,SW,5.8,-,N/A,,Overcast,220,2012-02-10 01:18:00
5:21 PM,48.2,48.2,100,30.17,2.0,Calm,Calm,-,N/A,,Overcast,0,2012-02-10 01:21:00
5:23 PM,48.2,48.2,100,30.17,1.8,Calm,Calm,-,N/A,,Overcast,0,2012-02-10 01:23:00
5:27 PM,48.2,48.2,100,30.17,1.5,SSW,3.5,-,N/A,,Overcast,210,2012-02-10 01:27:00
5:45 PM,48.2,46.4,93,30.16,1.0,Calm,Calm,-,N/A,,Mist,0,2012-02-10 01:45:00
5:50 PM,48.2,48.2,100,30.16,0.8,SSE,3.5,-,N/A,,Mist,160,2012-02-10 01:50:00
5:54 PM,48.2,46.4,93,30.16,0.5,Calm,Calm,-,N/A,Fog,Fog,0,2012-02-10 01:54:00
5:55 PM,47.5,47.3,99,30.16,0.5,Calm,Calm,-,N/A,Fog,Fog,0,2012-02-10 01:55:00
5:56 PM,48.2,46.4,93,30.16,0.5,Calm,Calm,-,N/A,Fog,Fog,0,2012-02-10 01:56:00
5:57 PM,48.2,46.4,93,30.16,0.5,Calm,Calm,-,N/A,Fog,Fog,0,2012-02-10 01:57:00
5:59 PM,48.2,46.4,93,30.16,0.5,Calm,Calm,-,N/A,Fog,Fog,0,2012-02-10 01:59:00
6:07 PM,48.2,46.4,93,30.15,0.5,Calm,Calm,-,N/A,Fog,Fog,0,2012-02-10 02:07:00
6:09 PM,48.2,46.4,93,30.15,0.2,Calm,Calm,-,N/A,Fog,Fog,0,2012-02-10 02:09:00
6:14 PM,48.2,46.4,93,30.14,0.2,Calm,Calm,-,N/A,Fog,Fog,0,2012-02-10 02:14:00
6:31 PM,46.4,46.4,100,30.14,0.2,Calm,Calm,-,N/A,Fog,Fog,0,2012-02-10 02:31:00
6:55 PM,47.1,47.1,100,30.12,0.2,East,3.5,-,N/A,Fog,Fog,90,2012-02-10 02:55:00
7:10 PM,48.2,48.2,100,30.12,0.2,Calm,Calm,-,N/A,Fog,Fog,0,2012-02-10 03:10:00
7:44 PM,46.4,46.4,100,30.11,0.2,Calm,Calm,-,N/A,Fog,Fog,0,2012-02-10 03:44:00
7:55 PM,46.8,46.8,100,30.10,0.2,Calm,Calm,-,N/A,Fog,Fog,0,2012-02-10 03:55:00
7:57 PM,46.4,46.4,100,30.10,0.2,Calm,Calm,-,N/A,Fog,Fog,0,2012-02-10 03:57:00
8:04 PM,46.4,46.4,100,30.09,0.2,ENE,6.9,-,N/A,Fog,Fog,70,2012-02-10 04:04:00
8:05 PM,46.4,46.4,100,30.08,0.2,ENE,6.9,-,N/A,Fog,Fog,70,2012-02-10 04:05:00
8:16 PM,46.4,46.4,100,30.09,0.2,Calm,Calm,-,N/A,Fog,Fog,0,2012-02-10 04:16:00
8:23 PM,46.4,46.4,100,30.08,0.2,Calm,Calm,-,N/A,Fog,Fog,0,2012-02-10 04:23:00
8:27 PM,46.4,46.4,100,30.09,0.2,Calm,Calm,-,N/A,Fog,Fog,0,2012-02-10 04:27:00
8:32 PM,46.4,46.4,100,30.08,0.5,WNW,3.5,-,N/A,Fog,Fog,300,2012-02-10 04:32:00
8:34 PM,46.4,46.4,100,30.08,0.2,Calm,Calm,-,N/A,Fog,Fog,0,2012-02-10 04:34:00
8:49 PM,46.4,46.4,100,30.08,0.5,Calm,Calm,-,N/A,Fog,Fog,0,2012-02-10 04:49:00
8:50 PM,46.4,46.4,100,30.08,0.5,Calm,Calm,-,N/A,Fog,Fog,0,2012-02-10 04:50:00
8:55 PM,46.4,46.4,100,30.08,0.5,Calm,Calm,-,N/A,Fog,Fog,0,2012-02-10 04:55:00
9:14 PM,46.4,46.4,100,30.08,0.2,Calm,Calm,-,N/A,Fog,Fog,0,2012-02-10 05:14:00
9:19 PM,46.4,46.4,100,30.08,0.2,Calm,Calm,-,N/A,Fog,Fog,0,2012-02-10 05:19:00
9:39 PM,46.4,46.4,100,30.07,0.2,Calm,Calm,-,N/A,Fog,Fog,0,2012-02-10 05:39:00
9:55 PM,46.0,46.0,100,30.08,0.2,Calm,Calm,-,N/A,Fog,Fog,0,2012-02-10 05:55:00
10:02 PM,46.4,46.4,100,30.07,0.2,Calm,Calm,-,N/A,Fog,Fog,0,2012-02-10 06:02:00
10:38 PM,44.6,44.6,100,30.07,0.2,Calm,Calm,-,N/A,Fog,Fog,0,2012-02-10 06:38:00
10:45 PM,44.6,44.6,100,30.08,0.2,Calm,Calm,-,N/A,Fog,Fog,0,2012-02-10 06:45:00
10:55 PM,45.3,45.3,100,30.06,0.2,Calm,Calm,-,N/A,Fog,Fog,0,2012-02-10 06:55:00
10:57 PM,44.6,44.6,100,30.06,0.2,Calm,Calm,-,N/A,Fog,Fog,0,2012-02-10 06:57:00
10:58 PM,44.6,44.6,100,30.06,0.5,Calm,Calm,-,N/A,Fog,Fog,0,2012-02-10 06:58:00
11:04 PM,44.6,44.6,100,30.06,0.5,Calm,Calm,-,N/A,Fog,Fog,0,2012-02-10 07:04:00
11:07 PM,44.6,44.6,100,30.06,0.5,Calm,Calm,-,N/A,Fog,Fog,0,2012-02-10 07:07:00
11:08 PM,44.6,44.6,100,30.06,0.8,Calm,Calm,-,N/A,,Mostly Cloudy,0,2012-02-10 07:08:00
11:13 PM,44.6,44.6,100,30.05,0.8,Calm,Calm,-,N/A,,Mostly Cloudy,0,2012-02-10 07:13:00
11:24 PM,44.6,44.6,100,30.06,1.0,Calm,Calm,-,N/A,,Mostly Cloudy,0,2012-02-10 07:24:00
11:26 PM,44.6,44.6,100,30.06,0.8,Calm,Calm,-,N/A,,Mostly Cloudy,0,2012-02-10 07:26:00
11:39 PM,44.6,44.6,100,30.06,0.8,Calm,Calm,-,N/A,,Mostly Cloudy,0,2012-02-10 07:39:00
11:45 PM,44.6,44.6,100,30.06,0.5,Calm,Calm,-,N/A,Fog,Fog,0,2012-02-10 07:45:00
11:50 PM,44.6,44.6,100,30.05,0.5,Calm,Calm,-,N/A,Fog,Fog,0,2012-02-10 07:50:00
11:53 PM,44.6,44.6,100,30.05,0.5,Calm,Calm,-,N/A,Fog,Fog,0,2012-02-10 07:53:00
11:55 PM,44.6,44.6,100,30.05,0.5,Calm,Calm,-,N/A,Fog,Fog,0,2012-02-10 07:55:00
11:56 PM,44.6,44.6,100,30.05,0.5,Calm,Calm,-,N/A,Fog,Fog,0,2012-02-10 07:56:00
11:57 PM,44.6,44.6,100,30.05,0.8,Calm,Calm,-,N/A,,Mostly Cloudy,0,2012-02-10 07:57:00